Time,TemperatureF,DewpointF,PressureIn,WindDirection,WindDirectionDegrees,WindSpeedMPH,WindSpeedGustMPH,Humidity,HourlyPrecipIn,Conditions,Clouds,dailyrainin,SoftwareType,DateUTC
2013-01-30 00:03:00,54.0,53.0,29.34,SW,223,0.0,4.0,96,0.09,,,0.81,,2013-01-30 05:03:00,
2013-01-30 00:12:00,54.0,53.0,29.32,South,179,0.0,0.0,96,0.06,,,0.81,,2013-01-30 05:12:00,
2013-01-30 00:22:00,54.0,53.0,29.32,South,179,0.0,0.0,96,0.06,,,0.81,,2013-01-30 05:22:00,
2013-01-30 00:32:00,54.0,53.0,29.33,South,182,2.0,2.0,97,0.01,,,0.81,,2013-01-30 05:32:00,
2013-01-30 00:43:00,54.0,53.0,29.33,South,182,2.0,2.0,97,0.01,,,0.81,,2013-01-30 05:43:00,
2013-01-30 00:52:00,54.0,53.0,29.31,SW,221,0.0,3.0,97,0.01,,,0.81,,2013-01-30 05:52:00,
2013-01-30 01:02:00,54.0,53.0,29.29,SSE,163,0.0,2.0,96,0.00,,,0.81,,2013-01-30 06:02:00,
2013-01-30 01:11:00,54.0,53.0,29.29,SSE,163,0.0,2.0,96,0.00,,,0.81,,2013-01-30 06:11:00,
2013-01-30 01:21:00,54.0,53.0,29.28,SW,226,0.0,4.0,96,0.00,,,0.81,,2013-01-30 06:21:00,
2013-01-30 01:32:00,54.0,53.0,29.27,SW,221,0.0,1.0,96,0.00,,,0.81,,2013-01-30 06:32:00,
2013-01-30 01:42:00,54.0,53.0,29.27,SW,221,0.0,1.0,96,0.00,,,0.81,,2013-01-30 06:42:00,
2013-01-30 01:52:00,54.0,53.0,29.27,WSW,242,0.0,2.0,96,0.01,,,0.82,,2013-01-30 06:52:00,
2013-01-30 02:02:00,54.0,53.0,29.26,WNW,284,0.0,1.0,96,0.03,,,0.84,,2013-01-30 07:02:00,
2013-01-30 02:11:00,54.0,53.0,29.26,WNW,284,0.0,1.0,96,0.03,,,0.84,,2013-01-30 07:11:00,
2013-01-30 02:22:00,54.0,53.0,29.27,WNW,302,1.0,2.0,97,0.07,,,0.88,,2013-01-30 07:22:00,
2013-01-30 02:32:00,54.0,53.0,29.26,WSW,250,5.0,5.0,97,0.10,,,0.91,,2013-01-30 07:32:00,
2013-01-30 02:42:00,54.0,53.0,29.26,WSW,250,5.0,5.0,97,0.10,,,0.91,,2013-01-30 07:42:00,
2013-01-30 02:52:00,53.0,52.0,29.26,NE,34,3.0,3.0,96,0.09,,,0.92,,2013-01-30 07:52:00,
2013-01-30 03:02:00,52.0,51.0,29.26,North,5,0.0,4.0,96,0.09,,,0.93,,2013-01-30 08:02:00,
2013-01-30 03:11:00,52.0,51.0,29.26,North,5,0.0,4.0,96,0.09,,,0.93,,2013-01-30 08:11:00,
2013-01-30 03:21:00,52.0,51.0,29.25,NNW,328,0.0,4.0,96,0.07,,,0.95,,2013-01-30 08:21:00,
2013-01-30 03:32:00,51.0,50.0,29.25,NW,325,0.0,4.0,96,0.04,,,0.95,,2013-01-30 08:32:00,
2013-01-30 03:42:00,51.0,50.0,29.25,NW,325,0.0,4.0,96,0.04,,,0.95,,2013-01-30 08:42:00,
2013-01-30 03:52:00,51.0,50.0,29.25,NW,323,0.0,1.0,96,0.05,,,0.97,,2013-01-30 08:52:00,
2013-01-30 04:02:00,50.0,49.0,29.25,NW,323,0.0,2.0,96,0.08,,,1.01,,2013-01-30 09:02:00,
2013-01-30 04:11:00,50.0,49.0,29.25,NW,323,0.0,2.0,96,0.08,,,1.01,,2013-01-30 09:11:00,
2013-01-30 04:22:00,50.0,49.0,29.24,NW,323,0.0,0.0,96,0.08,,,1.03,,2013-01-30 09:22:00,
2013-01-30 04:32:00,49.0,48.0,29.22,NW,323,0.0,0.0,96,0.09,,,1.05,,2013-01-30 09:32:00,
2013-01-30 04:42:00,49.0,48.0,29.22,NW,323,0.0,0.0,96,0.09,,,1.05,,2013-01-30 09:42:00,
2013-01-30 04:52:00,48.0,47.0,29.21,NW,323,0.0,0.0,96,0.09,,,1.07,,2013-01-30 09:52:00,
2013-01-30 05:01:00,47.0,46.0,29.23,NW,323,0.0,1.0,96,0.06,,,1.08,,2013-01-30 10:01:00,
2013-01-30 05:11:00,47.0,46.0,29.23,NW,323,0.0,1.0,96,0.06,,,1.08,,2013-01-30 10:11:00,
2013-01-30 05:21:00,47.0,46.0,29.23,NW,323,0.0,1.0,96,0.06,,,1.09,,2013-01-30 10:21:00,
2013-01-30 05:32:00,48.0,47.0,29.25,WNW,302,0.0,3.0,97,0.06,,,1.08,,2013-01-30 10:32:00,
2013-01-30 05:42:00,48.0,47.0,29.25,WNW,302,0.0,3.0,97,0.06,,,1.08,,2013-01-30 10:42:00,
2013-01-30 05:52:00,49.0,48.0,29.26,NW,325,3.0,10.0,96,0.05,,,1.03,,2013-01-30 10:52:00,
2013-01-30 06:02:00,46.0,45.0,29.28,WSW,257,0.0,6.0,95,0.06,,,1.00,,2013-01-30 11:02:00,
2013-01-30 06:11:00,46.0,45.0,29.28,WSW,257,0.0,6.0,95,0.06,,,1.00,,2013-01-30 11:11:00,
2013-01-30 06:22:00,44.0,43.0,29.29,ENE,65,0.0,3.0,95,0.06,,,0.96,,2013-01-30 11:22:00,
2013-01-30 06:33:00,43.0,42.0,29.27,NE,38,0.0,1.0,95,0.05,,,0.94,,2013-01-30 11:33:00,
2013-01-30 06:42:00,43.0,42.0,29.27,NE,38,0.0,1.0,95,0.05,,,0.94,,2013-01-30 11:42:00,
2013-01-30 06:52:00,42.0,41.0,29.24,North,0,0.0,1.0,95,0.05,,,0.89,,2013-01-30 11:52:00,
2013-01-30 07:02:00,41.0,40.0,29.21,ENE,61,0.0,0.0,95,0.04,,,0.83,,2013-01-30 12:02:00,
2013-01-30 07:12:00,41.0,40.0,29.21,ENE,61,0.0,0.0,95,0.04,,,0.83,,2013-01-30 12:12:00,
2013-01-30 07:22:00,40.0,39.0,29.23,ENE,61,0.0,1.0,95,0.02,,,0.79,,2013-01-30 12:22:00,
2013-01-30 07:33:00,40.0,39.0,29.24,ENE,61,0.0,1.0,95,0.01,,,0.78,,2013-01-30 12:33:00,
2013-01-30 07:43:00,40.0,39.0,29.24,ENE,61,0.0,1.0,95,0.01,,,0.78,,2013-01-30 12:43:00,
2013-01-30 08:03:00,40.0,39.0,29.23,NE,34,0.0,0.0,96,0.00,,,0.71,,2013-01-30 13:03:00,
2013-01-30 08:12:00,40.0,39.0,29.23,NE,34,0.0,0.0,96,0.00,,,0.71,,2013-01-30 13:12:00,
2013-01-30 08:23:00,39.0,38.0,29.22,NNE,15,1.0,2.0,95,0.00,,,0.69,,2013-01-30 13:23:00,
2013-01-30 08:33:00,39.0,38.0,29.23,WNW,286,0.0,1.0,95,0.00,,,0.69,,2013-01-30 13:33:00,
2013-01-30 08:43:00,39.0,38.0,29.23,WNW,286,0.0,1.0,95,0.00,,,0.69,,2013-01-30 13:43:00,
2013-01-30 08:53:00,39.0,38.0,29.22,North,349,0.0,2.0,96,0.00,,,0.68,,2013-01-30 13:53:00,
2013-01-30 09:03:00,39.0,38.0,29.23,NNE,26,0.0,2.0,96,0.00,,,0.67,,2013-01-30 14:03:00,
2013-01-30 09:12:00,39.0,38.0,29.23,NNE,26,0.0,2.0,96,0.00,,,0.67,,2013-01-30 14:12:00,
2013-01-30 09:23:00,39.0,38.0,29.25,NNE,18,0.0,4.0,96,0.00,,,0.67,,2013-01-30 14:23:00,
2013-01-30 09:33:00,38.0,37.0,29.23,North,355,0.0,5.0,95,0.00,,,0.66,,2013-01-30 14:33:00,
2013-01-30 09:42:00,38.0,37.0,29.23,North,355,0.0,5.0,95,0.00,,,0.66,,2013-01-30 14:42:00,
2013-01-30 09:53:00,38.0,37.0,29.25,North,0,1.0,4.0,96,0.01,,,0.67,,2013-01-30 14:53:00,
2013-01-30 10:03:00,38.0,37.0,29.26,NNE,31,1.0,3.0,96,0.01,,,0.67,,2013-01-30 15:03:00,
2013-01-30 10:12:00,38.0,37.0,29.26,NNE,31,1.0,3.0,96,0.01,,,0.67,,2013-01-30 15:12:00,
2013-01-30 10:23:00,38.0,37.0,29.26,NNE,31,0.0,1.0,96,0.01,,,0.67,,2013-01-30 15:23:00,
2013-01-30 10:33:00,38.0,37.0,29.24,NE,37,0.0,3.0,96,0.01,,,0.66,,2013-01-30 15:33:00,
2013-01-30 10:43:00,38.0,37.0,29.24,NE,37,0.0,3.0,96,0.01,,,0.66,,2013-01-30 15:43:00,
2013-01-30 10:53:00,38.0,37.0,29.26,NE,38,0.0,0.0,96,0.01,,,0.67,,2013-01-30 15:53:00,
2013-01-30 11:03:00,38.0,37.0,29.25,NE,38,0.0,0.0,96,0.01,,,0.67,,2013-01-30 16:03:00,
2013-01-30 11:12:00,38.0,37.0,29.25,NE,38,0.0,0.0,96,0.01,,,0.67,,2013-01-30 16:12:00,
2013-01-30 11:23:00,38.0,37.0,29.24,NNE,21,0.0,0.0,96,0.01,,,0.67,,2013-01-30 16:23:00,
2013-01-30 11:32:00,38.0,37.0,29.23,NNE,21,0.0,0.0,96,0.01,,,0.67,,2013-01-30 16:32:00,
2013-01-30 11:42:00,38.0,37.0,29.23,NNE,21,0.0,0.0,96,0.01,,,0.67,,2013-01-30 16:42:00,
2013-01-30 11:52:00,38.0,37.0,29.23,NNE,21,0.0,0.0,96,0.01,,,0.67,,2013-01-30 16:52:00,
2013-01-30 12:02:00,38.0,37.0,29.21,NNE,22,0.0,1.0,96,0.00,,,0.67,,2013-01-30 17:02:00,
2013-01-30 12:13:00,38.0,37.0,29.21,NNE,22,0.0,1.0,96,0.00,,,0.67,,2013-01-30 17:13:00,
2013-01-30 12:23:00,39.0,38.0,29.19,ESE,111,1.0,3.0,96,0.00,,,0.67,,2013-01-30 17:23:00,
2013-01-30 12:33:00,38.0,37.0,29.19,NE,42,0.0,3.0,96,0.00,,,0.67,,2013-01-30 17:33:00,
2013-01-30 12:43:00,38.0,37.0,29.19,NE,42,0.0,3.0,96,0.00,,,0.67,,2013-01-30 17:43:00,
2013-01-30 12:53:00,38.0,37.0,29.19,NE,38,0.0,1.0,96,0.00,,,0.67,,2013-01-30 17:53:00,
2013-01-30 13:03:00,38.0,37.0,29.16,ESE,107,0.0,5.0,96,0.00,,,0.67,,2013-01-30 18:03:00,
2013-01-30 13:13:00,38.0,37.0,29.16,ESE,107,0.0,5.0,96,0.00,,,0.67,,2013-01-30 18:13:00,
2013-01-30 13:23:00,38.0,37.0,29.16,NE,46,0.0,3.0,96,0.00,,,0.67,,2013-01-30 18:23:00,
2013-01-30 13:33:00,38.0,37.0,29.14,ESE,118,1.0,5.0,96,0.00,,,0.67,,2013-01-30 18:33:00,
2013-01-30 13:42:00,38.0,37.0,29.14,ESE,118,1.0,5.0,96,0.00,,,0.67,,2013-01-30 18:42:00,
2013-01-30 13:53:00,38.0,37.0,29.12,NE,47,0.0,2.0,96,0.00,,,0.67,,2013-01-30 18:53:00,
2013-01-30 14:03:00,38.0,37.0,29.11,ENE,57,0.0,4.0,96,0.00,,,0.67,,2013-01-30 19:03:00,
2013-01-30 14:12:00,38.0,37.0,29.11,ENE,57,0.0,4.0,96,0.00,,,0.67,,2013-01-30 19:12:00,
2013-01-30 14:22:00,38.0,37.0,29.11,East,94,0.0,5.0,96,0.00,,,0.67,,2013-01-30 19:22:00,
2013-01-30 14:33:00,38.0,37.0,29.11,NE,38,0.0,1.0,96,0.01,,,0.68,,2013-01-30 19:33:00,
2013-01-30 14:43:00,38.0,37.0,29.11,NE,38,0.0,1.0,96,0.01,,,0.68,,2013-01-30 19:43:00,
2013-01-30 14:53:00,38.0,37.0,29.10,East,88,0.0,3.0,96,0.01,,,0.68,,2013-01-30 19:53:00,
2013-01-30 15:03:00,38.0,37.0,29.10,ESE,121,0.0,4.0,96,0.01,,,0.68,,2013-01-30 20:03:00,
2013-01-30 15:12:00,38.0,37.0,29.10,ESE,121,0.0,4.0,96,0.01,,,0.68,,2013-01-30 20:12:00,
2013-01-30 15:22:00,38.0,37.0,29.08,ESE,106,0.0,2.0,96,0.01,,,0.68,,2013-01-30 20:22:00,
2013-01-30 15:33:00,38.0,37.0,29.08,SSE,153,0.0,3.0,96,0.00,,,0.68,,2013-01-30 20:33:00,
2013-01-30 15:42:00,38.0,37.0,29.08,SSE,153,0.0,3.0,96,0.00,,,0.68,,2013-01-30 20:42:00,
2013-01-30 15:53:00,39.0,38.0,29.07,SE,141,0.0,1.0,96,0.00,,,0.68,,2013-01-30 20:53:00,
2013-01-30 16:03:00,39.0,38.0,29.05,SE,135,0.0,2.0,96,0.00,,,0.68,,2013-01-30 21:03:00,
2013-01-30 16:12:00,39.0,38.0,29.05,SE,135,0.0,2.0,96,0.00,,,0.68,,2013-01-30 21:12:00,
2013-01-30 16:23:00,39.0,38.0,29.05,SE,135,0.0,0.0,96,0.01,,,0.69,,2013-01-30 21:23:00,
2013-01-30 16:32:00,39.0,38.0,29.03,NE,36,0.0,0.0,96,0.01,,,0.69,,2013-01-30 21:32:00,
2013-01-30 16:42:00,39.0,38.0,29.03,NE,36,0.0,0.0,96,0.01,,,0.69,,2013-01-30 21:42:00,
2013-01-30 16:53:00,39.0,38.0,29.04,NE,36,0.0,0.0,96,0.01,,,0.69,,2013-01-30 21:53:00,
2013-01-30 17:03:00,39.0,38.0,29.03,NNE,29,0.0,3.0,96,0.03,,,0.71,,2013-01-30 22:03:00,
2013-01-30 17:12:00,39.0,38.0,29.03,NNE,29,0.0,3.0,96,0.03,,,0.71,,2013-01-30 22:12:00,
2013-01-30 17:22:00,39.0,38.0,29.01,SE,144,0.0,0.0,96,0.02,,,0.71,,2013-01-30 22:22:00,
2013-01-30 17:32:00,40.0,39.0,29.03,SE,144,0.0,0.0,96,0.02,,,0.71,,2013-01-30 22:32:00,
2013-01-30 17:42:00,40.0,39.0,29.03,SE,144,0.0,0.0,96,0.02,,,0.71,,2013-01-30 22:42:00,
2013-01-30 17:53:00,40.0,39.0,29.03,SE,144,0.0,0.0,96,0.02,,,0.71,,2013-01-30 22:53:00,
2013-01-30 18:02:00,40.0,39.0,29.03,SE,145,0.0,1.0,96,0.02,,,0.72,,2013-01-30 23:02:00,
2013-01-30 18:12:00,40.0,39.0,29.03,SE,145,0.0,1.0,96,0.02,,,0.72,,2013-01-30 23:12:00,
2013-01-30 18:22:00,41.0,40.0,29.03,SSW,207,5.0,6.0,96,0.02,,,0.73,,2013-01-30 23:22:00,
2013-01-30 18:33:00,43.0,42.0,29.02,West,264,2.0,6.0,96,0.02,,,0.73,,2013-01-30 23:33:00,
2013-01-30 18:42:00,43.0,42.0,29.02,West,264,2.0,6.0,96,0.02,,,0.73,,2013-01-30 23:42:00,
2013-01-30 18:52:00,43.0,42.0,29.01,SSW,194,4.0,5.0,96,0.03,,,0.74,,2013-01-30 23:52:00,
2013-01-30 19:02:00,44.0,43.0,29.00,SW,232,4.0,9.0,96,0.02,,,0.73,,2013-01-31 00:02:00,
2013-01-30 19:11:00,44.0,43.0,29.00,SW,232,4.0,9.0,96,0.02,,,0.73,,2013-01-31 00:11:00,
2013-01-30 19:22:00,43.0,42.0,28.98,West,278,3.0,5.0,95,0.01,,,0.66,,2013-01-31 00:22:00,
2013-01-30 19:32:00,44.0,42.0,29.00,West,259,5.0,7.0,94,0.01,,,0.64,,2013-01-31 00:32:00,
2013-01-30 19:42:00,44.0,42.0,29.00,West,259,5.0,7.0,94,0.01,,,0.64,,2013-01-31 00:42:00,
2013-01-30 19:53:00,43.0,41.0,29.01,WNW,299,2.0,14.0,93,0.00,,,0.63,,2013-01-31 00:53:00,
2013-01-30 20:02:00,42.0,40.0,29.03,WSW,257,6.0,18.0,91,0.00,,,0.63,,2013-01-31 01:02:00,
2013-01-30 20:12:00,42.0,40.0,29.03,WSW,257,6.0,18.0,91,0.00,,,0.63,,2013-01-31 01:12:00,
2013-01-30 20:22:00,41.0,39.0,29.02,WNW,294,2.0,9.0,91,0.00,,,0.63,,2013-01-31 01:22:00,
2013-01-30 20:32:00,40.0,37.0,29.02,WNW,302,3.0,9.0,90,0.00,,,0.63,,2013-01-31 01:32:00,
2013-01-30 20:42:00,40.0,37.0,29.02,WNW,302,3.0,9.0,90,0.00,,,0.63,,2013-01-31 01:42:00,
2013-01-30 20:53:00,39.0,37.0,29.02,West,263,3.0,7.0,91,0.00,,,0.63,,2013-01-31 01:53:00,
2013-01-30 21:01:00,38.0,35.0,29.02,WSW,255,0.0,10.0,90,0.00,,,0.63,,2013-01-31 02:01:00,
2013-01-30 21:12:00,38.0,35.0,29.02,WSW,255,0.0,10.0,90,0.00,,,0.63,,2013-01-31 02:12:00,
2013-01-30 21:22:00,37.0,34.0,29.05,West,270,1.0,9.0,90,0.00,,,0.63,,2013-01-31 02:22:00,
2013-01-30 21:32:00,36.0,33.0,29.05,SW,234,3.0,9.0,90,0.00,,,0.63,,2013-01-31 02:32:00,
2013-01-30 21:42:00,36.0,33.0,29.05,SW,234,3.0,9.0,90,0.00,,,0.63,,2013-01-31 02:42:00,
2013-01-30 21:52:00,36.0,33.0,29.05,SW,234,3.0,9.0,90,0.00,,,0.63,,2013-01-31 02:52:00,
2013-01-30 22:03:00,35.0,32.0,29.07,WSW,257,2.0,7.0,89,0.00,,,0.62,,2013-01-31 03:03:00,
2013-01-30 22:11:00,35.0,32.0,29.07,WSW,257,2.0,7.0,89,0.00,,,0.62,,2013-01-31 03:11:00,
2013-01-30 22:21:00,34.0,31.0,29.06,West,277,4.0,12.0,88,0.00,,,0.62,,2013-01-31 03:21:00,
2013-01-30 22:32:00,34.0,31.0,29.06,WNW,290,2.0,7.0,88,0.00,,,0.62,,2013-01-31 03:32:00,
2013-01-30 22:42:00,34.0,31.0,29.06,WNW,290,2.0,7.0,88,0.00,,,0.62,,2013-01-31 03:42:00,
2013-01-30 22:52:00,33.0,30.0,29.08,West,280,4.0,9.0,87,0.00,,,0.62,,2013-01-31 03:52:00,
2013-01-30 23:02:00,33.0,29.0,29.09,West,274,2.0,10.0,86,0.00,,,0.57,,2013-01-31 04:02:00,
2013-01-30 23:11:00,33.0,29.0,29.09,West,274,2.0,10.0,86,0.00,,,0.57,,2013-01-31 04:11:00,
2013-01-30 23:22:00,32.0,28.0,29.10,WNW,292,3.0,7.0,84,0.00,,,0.54,,2013-01-31 04:22:00,
2013-01-30 23:32:00,32.0,28.0,29.11,WSW,246,5.0,11.0,84,0.00,,,0.48,,2013-01-31 04:32:00,
2013-01-30 23:42:00,32.0,28.0,29.11,WSW,246,5.0,11.0,84,0.00,,,0.48,,2013-01-31 04:42:00,
2013-01-30 23:52:00,31.0,26.0,29.13,WNW,302,2.0,10.0,83,0.00,,,0.48,,2013-01-31 04:52:00,